Temperature
6 5 5 5 5 5 5 5 5 5 5 5 5 6 6 6 6 6 7 7 7 7 7 7 7 8 8 7 8 8 8 7 7 7 7 7 7 7 7 8 8 8 8
5 5 4 4 4 4 4 5 5 5 5 5 5 5 5 6 6 6 6 6 6 7 7 7 7 7 7 7 7 7 7 7 6 6 6 6 6 6 7 7 7 7 7
5 4 4 4 4 4 4 4 4 4 4 4 5 5 5 5 5 6 6 6 6 6 6 6 6 6 6 6 6 6 6 6 6 6 5 5 5 5 6 6 6 6 6
4 4 4 3 4 4 4 4 4 4 4 4 4 4 4 5 5 5 5 5 5 5 5 5 5 5 5 5 6 6 6 6 5 5 5 5 5 5 4 5 5 5 6
4 4 3 3 3 3 3 3 3 3 3 3 3 4 4 4 4 4 4 5 5 5 5 5 5 5 5 5 5 5 5 5 5 5 5 5 5 5 4 4 5 5 5
4 3 3 3 3 3 3 3 3 3 3 3 3 3 3 3 3 3 4 4 4 4 4 4 4 4 4 4 4 4 4 4 4 4 4 4 4 4 4 4 4 4 4
3 3 3 3 2 2 2 2 2 2 2 2 2 2 2 3 3 3 3 3 3 3 3 3 3 3 3 3 3 4 3 4 4 4 4 4 4 4 4 4 3 3 3
2 2 2 2 2 2 1 1 1 2 2 2 2 2 2 2 2 2 2 2 2 2 2 2 3 3 3 3 3 3 3 3 3 3 3 3 3 3 3 3 3 3 3
1 1 1 2 1 1 1 1 1 1 1 1 1 1 1 2 2 2 2 2 2 2 2 2 2 2 2 2 2 2 2 2 2 2 3 3 3 3 3 3 3 2 2
1 1 1 1 1 1 1 1 1 1 0 1 1 1 1 1 1 1 1 1 1 1 1 1 1 1 1 2 1 1 2 2 2 2 2 2 2 2 2 2 2 2 2
0 0 0 0 0 0 0 0 -0 -0 -0 0 0 0 0 0 0 1 1 1 1 1 1 1 1 1 1 1 1 1 1 1 1 1 1 1 1 1 1 1 1 1 1
0 -0 -0 -0 -0 -0 -0 -0 -0 -0 -0 -0 -0 -0 -0 -0 -0 0 0 0 0 0 0 0 0 0 0 0 0 1 1 0 1 1 1 1 1 1 1 1 1 1 1
-0 -1 -1 -1 -1 -1 -1 -1 -1 -1 -1 -1 -1 -1 -1 -1 -1 -1 -0 -0 -0 -0 -0 -0 -0 -0 -0 0 0 -0 -0 -0 -0 -0 0 0 0 0 -0 -0 -0 -0 -0
-1 -1 -2 -2 -2 -2 -1 -1 -1 -1 -1 -1 -1 -1 -1 -1 -1 -1 -1 -1 -1 -1 -1 -1 -1 -1 -1 -1 -1 -1 -1 -1 -1 -1 -1 -1 -1 -1 -1 -1 -1 -1 -1
-2 -2 -2 -2 -2 -2 -2 -2 -2 -2 -2 -2 -2 -2 -2 -2 -2 -2 -2 -1 -1 -2 -1 -1 -1 -1 -1 -1 -1 -1 -1 -1 -1 -1 -1 -1 -1 -1 -1 -2 -1 -2 -2
-2 -3 -3 -3 -3 -3 -3 -3 -3 -3 -3 -3 -3 -2 -2 -2 -2 -2 -2 -2 -2 -2 -2 -2 -2 -2 -2 -2 -2 -2 -2 -2 -2 -2 -2 -2 -2 -2 -2 -2 -2 -2 -2
-3 -3 -3 -3 -3 -4 -4 -3 -3 -3 -3 -3 -3 -3 -3 -3 -3 -3 -3 -3 -3 -3 -3 -3 -3 -3 -3 -3 -3 -3 -3 -3 -3 -2 -3 -3 -3 -3 -3 -3 -3 -3 -3
-4 -4 -4 -4 -4 -4 -4 -4 -4 -4 -4 -4 -4 -4 -4 -4 -4 -4 -4 -4 -4 -4 -4 -4 -4 -4 -3 -3 -3 -3 -3 -3 -3 -3 -3 -3 -3 -3 -3 -3 -3 -3 -3
-4 -4 -5 -5 -5 -5 -5 -5 -5 -5 -4 -4 -4 -4 -4 -4 -4 -4 -4 -4 -4 -4 -4 -4 -4 -4 -4 -4 -4 -4 -4 -4 -4 -4 -4 -4 -4 -4 -4 -4 -4 -4 -4
-5 -5 -5 -5 -5 -5 -5 -5 -5 -5 -5 -5 -5 -5 -5 -5 -5 -5 -5 -5 -5 -5 -5 -5 -5 -5 -5 -5 -5 -5 -5 -5 -5 -4 -4 -4 -4 -4 -4 -5 -5 -4 -4
-5 -5 -6 -6 -6 -6 -6 -6 -6 -6 -6 -6 -6 -6 -6 -6 -6 -6 -6 -6 -6 -6 -6 -6 -6 -5 -5 -5 -5 -5 -5 -5 -5 -5 -5 -5 -5 -5 -5 -5 -5 -5 -5
-6 -6 -6 -6 -6 -6 -7 -6 -6 -6 -6 -6 -6 -6 -6 -7 -7 -7 -7 -7 -7 -7 -7 -7 -7 -6 -6 -6 -6 -6 -6 -6 -6 -6 -6 -6 -6 -6 -5 -6 -6 -6 -6
-7 -7 -7 -7 -7 -7 -7 -7 -7 -7 -7 -7 -7 -7 -7 -7 -7 -7 -8 -8 -8 -8 -8 -8 -7 -7 -7 -7 -7 -7 -7 -7 -7 -6 -6 -6 -6 -6 -6 -6 -6 -6 -6
-7 -7 -7 -7 -7 -7 -7 -8 -8 -8 -8 -8 -8 -8 -8 -8 -8 -8 -8 -8 -8 -8 -8 -8 -8 -8 -8 -8 -8 -7 -7 -7 -7 -7 -7 -7 -7 -7 -7 -7 -7 -7 -7
-8 -8 -8 -8 -8 -8 -8 -8 -8 -8 -8 -8 -8 -9 -9 -8 -9 -9 -9 -9 -9 -9 -9 -9 -9 -9 -8 -8 -8 -8 -8 -8 -8 -8 -8 -8 -8 -7 -7 -7 -7 -7 -7
-8 -8 -8 -8 -8 -8 -8 -8 -9 -9 -9 -9 -9 -9 -9 -9 -9 -9 -9 -9 -10 -10 -10 -10 -10 -9 -9 -9 -9 -9 -9 -8 -8 -8 -8 -8 -8 -8 -8 -8 -8 -8 -8
Wind_Speed
3 3 3 3 2 2 2 1 1 1 0 0 1 1 1 0 1 3 3 3 3 4 4 3 3 3 2 2 2 2 2 1 1 2 1 1 1 1 1 2 2 2 2
2 3 3 2 2 1 1 1 1 1 1 0 1 1 1 2 2 3 3 3 3 3 3 3 2 2 2 3 2 3 2 1 1 1 2 1 1 1 1 0 1 1 2
2 2 1 1 1 1 1 1 0 1 1 1 1 1 1 1 1 2 2 2 2 2 2 2 2 2 2 3 2 2 2 2 0 1 2 2 2 1 0 0 0 0 0
1 1 1 1 1 1 1 1 1 1 1 0 1 2 2 2 3 2 2 2 2 2 2 2 2 2 2 2 2 2 1 3 2 1 0 1 2 2 1 1 0 0 0
0 1 2 2 1 0 1 1 1 1 0 1 2 3 3 2 2 2 3 3 2 2 2 2 2 2 2 2 2 2 2 2 2 2 1 1 0 1 2 2 2 1 1
1 1 0 1 0 0 0 0 1 1 0 1 2 3 4 3 3 3 3 3 2 2 2 2 2 2 2 2 3 3 3 2 2 2 2 2 2 2 1 2 2 2 2
1 1 1 1 1 1 1 1 1 2 1 2 3 4 4 4 4 4 4 3 3 2 3 2 2 2 2 3 3 3 3 4 3 3 3 2 2 2 2 2 2 2 2
1 2 2 1 1 1 2 2 2 3 2 3 4 4 4 3 3 4 4 4 4 3 3 3 3 3 3 3 3 3 4 3 4 4 3 2 2 2 2 2 2 2 2
2 2 2 2 2 2 3 3 3 3 3 4 4 4 3 3 3 3 4 3 3 3 4 4 4 4 4 4 4 4 4 4 4 4 4 3 3 3 3 2 3 4 4
3 3 2 3 3 2 3 3 3 4 4 4 4 3 3 3 3 3 4 4 4 4 4 5 5 5 5 5 5 4 4 5 5 4 4 4 3 3 3 3 3 3 4
3 3 3 3 3 3 2 3 3 3 4 4 3 3 3 3 3 3 4 5 4 5 6 6 6 6 6 6 6 6 5 6 6 5 5 5 4 4 4 4 3 3 3
2 2 2 3 3 3 3 3 3 3 3 3 3 3 3 3 3 4 4 4 5 5 6 6 6 6 6 7 7 7 7 7 7 7 7 7 5 5 5 4 4 4 4
2 2 2 3 3 4 3 3 3 4 4 3 3 3 3 3 4 4 4 4 4 4 5 5 6 6 6 7 7 8 8 8 8 8 8 7 7 7 5 5 5 4 4
2 3 3 3 4 4 4 4 5 4 4 3 3 3 4 4 4 4 4 4 4 4 4 5 5 5 5 6 6 7 7 7 7 7 7 8 8 8 7 6 6 5 4
4 4 4 4 4 5 5 5 5 5 4 3 3 4 4 3 3 3 4 4 3 4 4 4 4 4 4 5 5 6 7 7 7 6 7 7 9 10 8 7 6 6 5
5 5 5 5 5 5 5 5 6 5 4 3 4 4 4 4 3 3 3 3 3 3 3 3 4 4 5 8 9 7 6 6 7 7 6 7 8 10 11 11 10 9 8
5 5 5 5 5 5 5 5 5 5 4 4 4 4 4 4 4 3 3 3 3 3 3 4 4 4 6 9 9 9 6 6 6 7 6 6 7 8 7 8 10 10 11
6 5 5 6 6 5 5 5 4 5 4 5 5 4 4 4 3 2 3 3 2 3 3 4 4 4 6 8 8 8 5 4 5 6 6 7 7 7 7 6 7 7 7
5 4 4 5 6 6 5 5 4 4 5 5 5 5 4 4 3 3 3 2 2 2 3 3 4 4 5 7 8 7 3 4 5 5 5 6 6 9 9 7 7 7 6
4 4 4 4 5 6 5 4 4 4 5 6 6 5 4 3 4 3 3 3 2 3 3 3 3 3 4 6 7 6 3 4 4 4 4 7 7 8 8 6 6 7 7
5 4 4 4 5 5 5 4 5 5 6 6 5 5 4 3 3 3 2 2 2 2 2 3 3 3 4 5 6 5 3 4 4 4 4 4 7 7 8 7 6 8 6
5 4 4 5 5 4 4 5 6 6 5 5 4 4 4 3 3 3 3 2 2 2 2 2 2 2 3 4 5 5 5 4 3 4 3 4 6 7 7 6 6 7 5
5 4 4 5 5 4 4 5 6 5 5 4 4 4 4 3 3 3 2 2 2 2 2 2 2 3 2 3 5 5 5 5 3 3 5 5 5 5 5 5 5 4 3
5 4 5 5 6 6 5 5 5 5 4 4 4 4 3 3 3 2 2 2 2 2 2 3 3 3 3 2 3 3 3 4 4 3 4 4 4 4 3 3 2 2 2
5 4 5 6 6 6 6 5 5 4 4 4 4 3 3 3 2 2 2 3 2 3 3 2 3 3 3 4 4 3 2 2 2 2 1 1 1 1 1 1 1 1 2
5 5 5 6 6 6 6 5 4 4 4 4 4 3 2 2 2 2 3 4 4 5 6 5 4 4 5 6 5 5 4 3 2 1 1 1 1 2 2 2 2 2 2
Wind_Direction
162 137 124 117 110 111 118 130 128 139 91 23 11 347 315 234 111 89 85 85 75 69 74 76 79 83 106 115 111 114 115 116 121 102 81 0 357 93 73 69 84 79 78
146 129 117 113 113 123 137 177 186 171 164 286 309 250 260 220 157 125 115 104 96 81 89 93 105 102 115 105 105 119 120 111 99 129 148 173 9 10 347 37 94 83 73
130 131 141 145 143 158 176 219 225 183 156 18 4 335 295 196 162 158 156 128 119 104 99 111 109 112 130 140 141 139 135 160 176 120 147 162 197 182 295 153 110 113 108
125 147 152 205 217 209 183 194 202 183 185 161 219 255 254 226 206 182 173 157 155 148 138 135 126 131 129 150 161 144 152 160 186 219 254 184 154 164 188 272 229 186 257
243 200 189 215 228 233 196 198 211 212 1 337 248 244 244 233 192 170 176 180 170 162 157 149 137 147 158 166 161 162 177 180 188 197 208 227 158 149 184 219 229 263 263
338 319 206 169 217 299 345 247 222 237 262 272 261 247 241 221 198 196 196 195 190 190 179 168 162 169 181 186 184 181 189 194 200 209 198 196 190 184 190 215 222 237 252
328 320 333 347 322 319 308 304 279 266 275 269 260 256 241 218 213 212 204 199 200 211 204 200 191 194 203 204 195 191 202 200 199 213 215 217 218 208 212 209 237 254 266
298 303 302 302 271 272 278 284 283 286 279 268 260 259 248 221 221 221 214 209 206 206 207 209 209 214 211 213 202 200 207 202 206 218 214 217 228 221 210 207 210 247 262
317 315 330 330 309 288 275 267 277 288 289 278 268 258 246 241 232 228 222 219 213 212 205 212 217 220 218 216 206 206 215 208 212 215 215 217 225 224 224 216 199 202 237
328 321 327 327 314 292 290 288 281 277 281 279 274 266 260 253 246 225 223 219 215 210 205 214 218 220 220 218 213 212 211 215 220 217 216 222 223 222 223 224 227 221 222
318 325 326 315 312 312 305 292 281 283 286 285 283 274 259 257 249 232 228 222 215 209 209 213 215 215 216 215 213 213 212 218 222 221 217 224 222 218 219 224 226 229 227
316 320 325 331 326 317 304 292 287 285 286 288 287 279 267 256 243 242 242 235 222 217 216 216 216 218 220 214 213 216 216 218 219 220 219 223 223 221 223 220 225 229 220
320 328 334 330 322 320 317 312 303 297 298 298 293 291 279 259 250 250 248 240 231 225 225 220 221 224 226 222 218 217 218 221 221 219 222 221 217 223 227 224 225 229 230
312 326 328 325 325 328 328 325 317 309 304 299 292 285 279 269 258 253 248 242 237 227 225 224 228 229 231 230 224 220 221 224 226 226 226 223 221 221 220 226 224 223 223
330 330 324 324 329 332 330 325 319 316 312 305 296 288 291 286 277 262 251 246 244 239 230 225 231 231 235 237 230 227 225 223 226 228 228 230 231 231 229 231 223 215 219
324 327 327 329 327 325 322 322 319 320 323 318 308 309 311 304 292 273 260 251 246 240 229 232 234 239 248 249 246 244 234 227 227 230 230 234 235 235 237 239 236 229 221
318 323 322 320 319 318 320 317 316 325 328 319 314 312 307 303 301 294 264 252 249 243 238 242 240 246 255 254 249 248 246 235 234 232 231 240 239 237 230 235 236 239 238
317 322 327 327 327 327 327 326 331 332 329 320 314 316 315 308 304 294 274 263 253 247 248 253 250 253 257 257 257 252 250 240 239 238 232 233 233 230 225 224 232 239 242
314 320 321 318 322 326 328 329 332 332 330 323 318 322 320 310 299 282 277 275 270 264 260 261 257 254 260 261 262 258 242 243 246 246 242 238 235 240 235 225 228 238 245
329 328 328 325 323 325 330 330 328 331 324 319 317 319 318 309 301 292 283 280 273 262 264 270 264 257 257 262 261 257 237 245 250 248 246 249 247 243 239 225 222 233 239
318 320 323 321 317 322 329 326 326 319 313 315 318 322 323 314 307 308 312 311 296 290 273 274 277 269 267 269 264 256 240 241 246 246 247 250 251 249 247 242 230 237 241
317 320 322 319 320 324 326 320 315 313 318 322 324 324 323 320 319 319 318 317 311 303 293 288 288 282 278 277 276 264 254 251 243 246 249 253 255 255 257 256 248 250 251
310 316 315 312 317 322 319 310 311 318 324 324 321 321 324 325 324 316 311 311 302 293 289 284 283 289 290 284 285 276 260 259 259 253 251 257 260 262 258 264 263 252 232
305 311 313 311 313 316 315 308 312 320 321 317 316 318 321 324 327 320 308 297 286 279 281 279 282 290 295 296 289 277 267 259 262 266 260 253 257 259 261 268 264 241 228
303 304 301 300 302 309 312 314 317 321 316 311 310 313 314 315 315 309 294 286 274 269 274 270 269 278 281 283 288 292 280 260 246 250 262 258 255 237 237 240 242 236 228
297 302 300 300 303 308 309 313 316 315 312 312 312 312 314 313 312 312 310 304 293 301 297 293 288 284 290 300 289 284 287 275 256 224 228 243 247 242 245 247 249 248 246
Height
1493 1493 1493 1494 1494 1495 1495 1495 1495 1496 1496 1497 1497 1498 1499 1500 1502 1504 1505 1506 1508 1509 1511 1512 1513 1515 1516 1517 1519 1520 1521 1522 1524 1525 1527 1528 1530 1531 1532 1534 1535 1536 1537
1490 1490 1490 1491 1491 1492 1492 1492 1492 1493 1494 1494 1495 1496 1496 1497 1499 1501 1502 1503 1504 1506 1508 1509 1510 1511 1513 1514 1516 1517 1518 1519 1520 1522 1524 1525 1527 1528 1529 1530 1531 1533 1534
1488 1488 1488 1488 1488 1489 1489 1489 1489 1490 1490 1491 1492 1493 1493 1494 1496 1497 1499 1500 1501 1502 1504 1506 1507 1508 1509 1511 1512 1514 1514 1516 1518 1519 1521 1522 1522 1524 1525 1526 1528 1529 1530
1486 1486 1486 1486 1486 1486 1487 1487 1487 1487 1488 1489 1489 1489 1489 1490 1491 1493 1495 1497 1498 1499 1501 1502 1503 1505 1506 1507 1509 1510 1512 1513 1514 1515 1517 1519 1519 1521 1521 1523 1525 1526 1527
1486 1485 1484 1484 1484 1484 1484 1484 1484 1484 1484 1484 1485 1486 1486 1487 1488 1490 1491 1493 1494 1496 1497 1498 1500 1501 1502 1504 1505 1507 1508 1509 1510 1511 1512 1514 1515 1517 1518 1518 1520 1522 1523
1485 1484 1483 1482 1481 1481 1481 1481 1481 1481 1481 1482 1482 1482 1482 1483 1485 1486 1487 1489 1491 1492 1493 1494 1496 1497 1498 1500 1501 1503 1504 1506 1507 1508 1509 1510 1511 1512 1514 1514 1515 1516 1518
1483 1482 1481 1480 1479 1479 1478 1478 1477 1477 1477 1478 1478 1478 1479 1480 1481 1482 1483 1485 1486 1488 1489 1490 1492 1493 1495 1496 1497 1499 1500 1502 1503 1504 1505 1506 1507 1509 1510 1511 1511 1512 1513
1481 1481 1480 1479 1477 1477 1476 1475 1474 1473 1473 1474 1474 1475 1475 1476 1477 1478 1480 1481 1482 1484 1485 1487 1488 1489 1491 1492 1493 1494 1496 1497 1499 1500 1501 1502 1503 1505 1506 1507 1508 1508 1509
1479 1478 1478 1476 1475 1474 1473 1472 1471 1470 1470 1470 1470 1470 1471 1471 1473 1474 1475 1477 1478 1479 1481 1482 1483 1485 1486 1487 1489 1490 1491 1493 1494 1495 1496 1497 1499 1501 1502 1503 1504 1505 1504
1477 1476 1475 1474 1473 1472 1471 1470 1469 1468 1467 1467 1467 1466 1466 1467 1469 1470 1471 1472 1474 1475 1476 1477 1479 1480 1481 1482 1484 1485 1486 1488 1489 1490 1491 1493 1494 1495 1496 1498 1499 1500 1501
1475 1474 1473 1472 1471 1470 1469 1467 1466 1464 1464 1463 1462 1463 1463 1463 1464 1465 1466 1467 1469 1470 1471 1472 1473 1475 1476 1477 1478 1480 1481 1482 1483 1485 1486 1487 1489 1490 1491 1492 1493 1495 1496
1474 1473 1471 1469 1468 1466 1465 1464 1462 1461 1460 1459 1458 1458 1458 1459 1459 1459 1461 1462 1463 1464 1465 1467 1468 1469 1470 1471 1473 1474 1475 1476 1478 1479 1481 1482 1483 1484 1486 1487 1488 1489 1490
1472 1470 1469 1467 1465 1463 1462 1460 1459 1458 1457 1456 1455 1454 1454 1454 1454 1454 1456 1457 1457 1458 1460 1461 1462 1463 1464 1465 1466 1468 1469 1470 1472 1473 1474 1476 1477 1478 1479 1480 1482 1483 1484
1470 1468 1466 1465 1463 1461 1459 1457 1456 1455 1453 1452 1451 1449 1449 1449 1449 1449 1450 1450 1451 1452 1453 1455 1456 1457 1458 1459 1460 1461 1463 1464 1465 1467 1468 1469 1471 1472 1473 1474 1476 1477 1478
1467 1465 1464 1462 1460 1458 1456 1454 1452 1451 1450 1448 1446 1445 1445 1445 1444 1444 1444 1444 1445 1446 1447 1448 1449 1450 1451 1453 1454 1455 1456 1457 1459 1460 1461 1463 1464 1466 1467 1468 1469 1471 1472
1465 1463 1462 1459 1457 1455 1453 1451 1449 1448 1446 1444 1442 1441 1440 1439 1439 1438 1438 1438 1439 1440 1441 1442 1443 1444 1445 1447 1448 1450 1450 1451 1452 1453 1455 1456 1458 1459 1461 1462 1463 1465 1465
1463 1461 1459 1457 1455 1453 1450 1448 1446 1444 1442 1440 1438 1437 1436 1435 1433 1433 1433 1433 1433 1434 1435 1436 1437 1438 1439 1441 1442 1443 1444 1445 1446 1447 1448 1450 1451 1453 1454 1455 1457 1458 1459
1460 1458 1456 1454 1452 1449 1447 1444 1442 1440 1438 1436 1434 1433 1432 1430 1430 1429 1429 1429 1429 1429 1430 1431 1431 1432 1434 1435 1436 1437 1438 1439 1440 1441 1442 1443 1445 1446 1448 1449 1450 1451 1452
1457 1455 1453 1451 1448 1446 1444 1441 1439 1437 1435 1433 1431 1430 1428 1427 1426 1425 1425 1425 1425 1425 1425 1426 1427 1428 1429 1430 1431 1432 1432 1433 1433 1435 1436 1438 1439 1440 1442 1443 1443 1444 1446
1454 1452 1449 1447 1445 1443 1441 1438 1435 1433 1432 1430 1429 1427 1425 1424 1422 1421 1421 1421 1421 1421 1421 1422 1422 1423 1424 1424 1425 1426 1427 1427 1428 1429 1430 1432 1433 1435 1436 1437 1437 1438 1439
1450 1448 1446 1443 1441 1439 1437 1435 1432 1430 1429 1427 1425 1424 1422 1420 1419 1418 1418 1418 1417 1417 1417 1418 1418 1418 1419 1420 1421 1421 1422 1422 1422 1423 1425 1426 1428 1429 1430 1431 1432 1432 1434
1446 1445 1442 1440 1438 1436 1434 1431 1429 1428 1426 1424 1422 1420 1419 1418 1416 1415 1415 1414 1414 1413 1413 1414 1414 1414 1415 1416 1416 1416 1416 1417 1418 1418 1420 1421 1422 1424 1425 1425 1426 1427 1428
1443 1441 1439 1436 1434 1432 1430 1428 1426 1424 1422 1420 1419 1417 1416 1415 1414 1412 1412 1411 1411 1410 1410 1410 1410 1410 1411 1411 1412 1412 1412 1412 1413 1414 1415 1416 1418 1418 1419 1420 1421 1422 1423
1440 1437 1435 1432 1430 1429 1427 1425 1423 1421 1419 1417 1415 1414 1412 1411 1410 1410 1409 1408 1407 1407 1407 1406 1406 1406 1407 1407 1408 1407 1407 1408 1409 1410 1411 1412 1413 1414 1415 1416 1416 1417 1418
1436 1434 1432 1429 1427 1425 1423 1421 1419 1417 1416 1414 1412 1411 1409 1408 1407 1407 1406 1405 1405 1405 1404 1404 1404 1404 1403 1404 1405 1404 1404 1404 1405 1406 1407 1408 1408 1409 1410 1411 1412 1413 1414
1432 1430 1428 1426 1424 1422 1420 1418 1417 1415 1413 1411 1409 1408 1407 1406 1405 1404 1403 1403 1403 1402 1402 1402 1402 1401 1402 1402 1402 1402 1402 1402 1403 1403 1403 1403 1404 1405 1406 1407 1408 1409 1410